Weather History for Spokane Fairchild, WA

Change the Weather History Date:

Monday, January 21, 2013

  Actual Average Record
Temperature  
Mean Temperature 12 °F -  
Max Temperature 21 °F 33 °F 44 °F (2005)
Min Temperature 4 °F 23 °F 4 °F (2008)
Degree Days  
Heating Degree Days 52    
Moisture  
Dew Point 13 °F    
Average Humidity 100    
Maximum Humidity 100    
Minimum Humidity 100    
Precipitation  
Precipitation 0.00 in - - ()
Snow  
Snow 0.00 in - - ()
Snow Depth 3.00 in    
Sea Level Pressure  
Sea Level Pressure 30.31 in    
Wind  
Wind Speed 1 mph (NW)    
Max Wind Speed 8 mph    
Max Gust Speed -    
Visibility 4 miles    
Events Fog , Snow    
Averages and records for this station are not official NWS values.
T = Trace of Precipitation, MM = Missing Value Source: NWS Daily Summary

Daily Weather History Graph

Daily Weather History Graph

Search for Another Location

Airport:

Trip Planner

Search our weather history database for the weather conditions in past years. The results will help you decide how hot, cold, wet, or windy it might be!

Date:

Astronomy

Jan. 21, 2013 Rise Set
Actual Time 7:29 AM PST 4:35 PM PST
Civil Twilight 6:54 AM PST 5:09 PM PST
Nautical Twilight 6:17 AM PST 5:47 PM PST
Astronomical Twilight 5:40 AM PST 6:24 PM PST
Moon 12:16 PM PST (1/21) 3:02 AM PST (1/21)
Length of Visible Light 10h 14m
Length of Day
9h 06m
Waxing Gibbous, 76% of the Moon is Illuminated
Jan 21
Waxing Gibbous
Jan 26
Full
Feb 3
Last Quarter
Feb 9
New
Feb 17
First Quarter

Hourly Weather History & Observations

Time (PST) Temp. Windchill Dew Point Humidity Pressure Visibility Wind Dir Wind Speed Gust Speed Precip Events Conditions
12:08 AM 12.2 °F - 12.2 °F 100% 30.33 in 0.5 mi West 1.2 mph - N/A Fog Light Freezing Fog
12:13 AM 12.2 °F - 12.2 °F 100% 30.33 in 0.8 mi NW 1.2 mph - N/A   Clear
12:23 AM 12.2 °F - 12.2 °F 100% 30.33 in 0.5 mi Calm Calm - N/A Fog Light Freezing Fog
12:33 AM 12.2 °F - 12.2 °F 100% 30.33 in 0.8 mi NNE 1.2 mph - N/A   Clear
12:38 AM 12.2 °F - 12.2 °F 100% 30.33 in 1.2 mi Calm Calm - N/A   Clear
12:43 AM 12.2 °F - 12.2 °F 100% 30.33 in 0.5 mi Calm Calm - N/A Fog Light Freezing Fog
12:48 AM 14.0 °F - 14.0 °F 100% 30.32 in 0.2 mi Calm Calm - N/A Fog Light Freezing Fog
12:58 AM 12.7 °F - 12.7 °F 100% 30.45 in 0.2 mi Calm Calm - N/A Fog Light Freezing Fog
1:09 AM 12.2 °F - 12.2 °F 100% 30.32 in 0.2 mi Calm Calm - N/A Fog Light Freezing Fog
1:11 AM 12.2 °F - 12.2 °F 100% 30.32 in 0.2 mi Calm Calm - N/A Fog Light Freezing Fog
1:56 AM 13.1 °F - 13.1 °F 100% 30.45 in 0.2 mi NNE 1.2 mph - N/A Fog Light Freezing Fog
2:55 AM 12.0 °F - 12.0 °F 100% 30.45 in 0.2 mi Calm Calm - N/A Fog Light Freezing Fog
3:19 AM 10.4 °F - 10.4 °F 100% 30.32 in 0.2 mi SW 1.2 mph - N/A Fog Light Freezing Fog
3:24 AM 10.4 °F - 10.4 °F 100% 30.32 in 0.5 mi Calm Calm - N/A Fog Light Freezing Fog
3:39 AM 10.4 °F - 10.4 °F 100% 30.32 in 0.2 mi Calm Calm - N/A Fog Light Freezing Fog
3:49 AM 10.4 °F - 10.4 °F 100% 30.32 in 0.2 mi Calm Calm - N/A Fog Light Freezing Fog
3:54 AM 10.4 °F - 10.4 °F 100% 30.32 in 0.2 mi NE 1.2 mph - N/A Fog Light Freezing Fog
3:58 AM 10.9 °F - 10.9 °F 100% 30.45 in 0.2 mi NE 1.2 mph - N/A Fog Light Freezing Fog
3:59 AM 10.4 °F - 10.4 °F 100% 30.43 in 0.2 mi NNE 1.2 mph - N/A Fog Light Freezing Fog
4:55 AM 11.5 °F - 11.5 °F 100% 30.44 in 0.2 mi East 1.2 mph - N/A Fog Light Freezing Fog
5:55 AM 10.6 °F - 10.6 °F 100% 30.43 in 0.2 mi Calm Calm - N/A Fog Light Freezing Fog
6:55 AM 11.7 °F - 11.7 °F 100% 30.42 in 0.2 mi Calm Calm - N/A Fog Light Freezing Fog
7:47 AM 10.4 °F - 10.4 °F 100% 30.30 in 0.2 mi Calm Calm - N/A Fog Light Freezing Fog
7:58 AM 10.9 °F - 10.9 °F 100% 30.44 in 0.2 mi Calm Calm - 0.00 in Fog Light Freezing Fog
8:08 AM 10.4 °F - 10.4 °F 100% 30.30 in 0.5 mi Calm Calm - N/A Fog Light Freezing Fog
8:13 AM 10.4 °F - 10.4 °F 100% 30.30 in 0.2 mi NW 1.2 mph - N/A Fog , Snow Light Freezing Fog
8:33 AM 10.4 °F 4.0 °F 10.4 °F 100% 30.31 in 0.2 mi North 3.5 mph - N/A Fog Light Freezing Fog
8:38 AM 10.4 °F - 10.4 °F 100% 30.31 in 0.5 mi NNE 2.3 mph - N/A Fog Light Freezing Fog
8:43 AM 10.4 °F - 10.4 °F 100% 30.30 in 0.2 mi NE 2.3 mph - N/A Fog Light Freezing Fog
8:48 AM 10.4 °F - 10.4 °F 100% 30.31 in 0.2 mi NE 2.3 mph - N/A Fog Light Freezing Fog
8:53 AM 12.2 °F - 12.2 °F 100% 30.31 in 0.2 mi NE 1.2 mph - N/A Fog Light Freezing Fog
8:58 AM 11.7 °F - 11.7 °F 100% 30.45 in 0.2 mi Calm Calm - N/A Fog Light Freezing Fog
9:58 AM 13.5 °F - 13.5 °F 100% 30.44 in 0.2 mi Calm Calm - N/A Fog Light Freezing Fog
10:03 AM 14.0 °F - 14.0 °F 100% 30.30 in 0.2 mi NE 2.3 mph - N/A Fog , Snow Light Freezing Fog
10:13 AM 14.0 °F - 14.0 °F 100% 30.30 in 0.2 mi NNE 2.3 mph - N/A Fog , Snow Light Freezing Fog
10:17 AM 14.0 °F - 14.0 °F 100% 30.30 in 0.2 mi NNE 2.3 mph - N/A Fog Light Freezing Fog
10:29 AM 14.0 °F - 14.0 °F 100% 30.30 in 0.2 mi NNE 2.3 mph - N/A Fog , Snow Light Freezing Fog
10:40 AM 15.8 °F - 15.8 °F 100% 30.30 in 0.2 mi NE 2.3 mph - N/A Fog Light Freezing Fog
10:45 AM 15.8 °F - 15.8 °F 100% 30.30 in 0.2 mi NNE 1.2 mph - N/A Fog Light Freezing Fog
10:50 AM 15.8 °F - 15.8 °F 100% 30.30 in 0.5 mi NNE 2.3 mph - N/A Fog Light Freezing Fog
10:55 AM 14.0 °F - 14.0 °F 100% 30.30 in 0.2 mi NNE 2.3 mph - N/A Fog Light Freezing Fog
10:58 AM 14.0 °F - 14.0 °F 100% 30.44 in 0.2 mi NNE 2.3 mph - 0.00 in Fog Light Freezing Fog
11:03 AM 15.8 °F - 15.8 °F 100% 30.30 in 0.2 mi North 1.2 mph - N/A Fog Light Freezing Fog
11:04 AM 15.8 °F - 15.8 °F 100% 30.30 in 0.2 mi Calm Calm - N/A Fog , Snow Light Freezing Fog
11:13 AM 15.8 °F - 15.8 °F 100% 30.30 in 0.2 mi Calm Calm - N/A Fog Light Freezing Fog
11:28 AM 15.8 °F - 15.8 °F 100% 30.29 in 0.2 mi Calm Calm - N/A Fog Light Freezing Fog
11:34 AM 15.8 °F - 15.8 °F 100% 30.29 in 0.2 mi Calm Calm - N/A Fog , Snow Light Freezing Fog
11:39 AM 15.8 °F - 15.8 °F 100% 30.29 in 0.2 mi Calm Calm - N/A Fog , Snow Light Freezing Fog
11:44 AM 17.6 °F - 17.6 °F 100% 30.29 in 0.2 mi Calm Calm - N/A Fog , Snow Light Freezing Fog
11:48 AM 17.6 °F - 17.6 °F 100% 30.29 in 0.2 mi Calm Calm - N/A Fog Light Freezing Fog
11:58 AM 17.4 °F - 17.4 °F 100% 30.42 in 0.2 mi Calm Calm - 0.00 in Fog Light Freezing Fog
12:00 PM 17.6 °F - 17.6 °F 100% 30.28 in 0.2 mi Calm Calm - N/A Fog , Snow Light Freezing Fog
12:09 PM 17.6 °F - 17.6 °F 100% 30.28 in 0.2 mi Calm Calm - N/A Fog Light Freezing Fog
12:14 PM 17.6 °F - 17.6 °F 100% 30.28 in 0.2 mi Calm Calm - N/A Fog Light Freezing Fog
12:19 PM 17.6 °F - 17.6 °F 100% 30.28 in 0.5 mi Calm Calm - N/A Fog Light Freezing Fog
12:24 PM 17.6 °F - 17.6 °F 100% 30.28 in 0.8 mi Calm Calm - N/A   Clear
12:29 PM 19.4 °F - 19.4 °F 100% 30.28 in 0.5 mi Calm Calm - N/A Fog Light Freezing Fog
12:39 PM 19.4 °F - 19.4 °F 100% 30.27 in 0.8 mi Calm Calm - N/A   Clear
12:44 PM 19.4 °F - 19.4 °F 100% 30.27 in 1.2 mi Calm Calm - N/A   Clear
12:49 PM 19.4 °F - 19.4 °F 100% 30.27 in 3.0 mi Calm Calm - N/A   Clear
12:58 PM 19.8 °F - 19.8 °F 100% 30.40 in 7.0 mi Calm Calm - 0.00 in   Clear
1:05 PM 21.2 °F - 21.2 °F 100% 30.27 in 8.0 mi Calm Calm - N/A   Clear
1:06 PM 21.2 °F - 21.2 °F 100% 30.27 in 8.0 mi Calm Calm - N/A   Clear
1:41 PM 19.4 °F 12.8 °F 19.4 °F 100% 30.26 in 2.0 mi East 4.6 mph - N/A   Clear
1:58 PM 19.6 °F 14.5 °F 19.6 °F 100% 30.39 in 2.5 mi ENE 3.5 mph - 0.00 in   Clear
2:03 PM 19.4 °F 14.3 °F 19.4 °F 100% 30.25 in 3.0 mi ENE 3.5 mph - N/A   Clear
2:04 PM 19.4 °F 14.3 °F 19.4 °F 100% 30.25 in 3.0 mi ENE 3.5 mph - N/A   Clear
2:58 PM 19.8 °F - 19.8 °F 100% 30.38 in 4.0 mi Calm Calm - 0.00 in   Clear
3:31 PM 19.4 °F - 19.4 °F 100% 30.23 in 5.0 mi North 2.3 mph - N/A   Clear
3:41 PM 21.2 °F - 21.2 °F 100% 30.23 in 5.0 mi North 1.2 mph - N/A   Clear
3:56 PM 19.4 °F - 19.4 °F 100% 30.23 in 5.0 mi North 2.3 mph - N/A   Clear
3:59 PM 19.9 °F - 19.9 °F 100% 30.37 in 5.0 mi NNW 2.3 mph - 0.00 in   Clear
4:19 PM 19.4 °F 14.3 °F 19.4 °F 100% 30.24 in 8.0 mi North 3.5 mph - N/A   Clear
4:28 PM 15.8 °F 10.2 °F 15.8 °F 100% 30.24 in 8.0 mi North 3.5 mph - N/A Snow Light Snow
4:36 PM 14.0 °F 8.2 °F 14.0 °F 100% 30.23 in 8.0 mi Variable 3.5 mph - N/A   Clear
4:58 PM 13.8 °F 3.7 °F 13.8 °F 100% 30.38 in 10.0 mi SW 6.9 mph - 0.00 in   Clear
5:58 PM 12.6 °F 4.8 °F 12.6 °F 100% 30.38 in 9.0 mi WSW 4.6 mph - N/A   Clear
6:34 PM 12.2 °F 2.9 °F 12.2 °F 100% 30.23 in 10.0 mi SW 5.8 mph - N/A Snow Light Snow
6:43 PM 12.2 °F 4.3 °F 12.2 °F 100% 30.23 in 8.0 mi WSW 4.6 mph - N/A   Clear
6:58 PM 9.1 °F -3.0 °F 9.1 °F 100% 30.38 in 10.0 mi WSW 8.1 mph - 0.00 in   Clear
6:59 PM 8.6 °F -2.6 °F 8.6 °F 100% 30.23 in 10.0 mi WSW 6.9 mph - N/A Snow Light Snow
7:12 PM 6.8 °F -5.9 °F 6.8 °F 100% 30.23 in 10.0 mi West 8.1 mph - N/A   Clear
7:18 PM 6.8 °F -4.8 °F 6.8 °F 100% 30.23 in 10.0 mi West 6.9 mph - N/A Snow Light Snow
7:34 PM 6.8 °F -3.5 °F 6.8 °F 100% 30.23 in 10.0 mi West 5.8 mph - N/A   Clear
7:58 PM 6.8 °F -4.8 °F 6.8 °F 100% 30.40 in 10.0 mi West 6.9 mph - 0.00 in   Clear
8:17 PM 5.0 °F -5.6 °F 5.0 °F 100% 30.25 in 10.0 mi WSW 5.8 mph - N/A Snow Light Snow
8:45 PM 5.0 °F -5.6 °F 5.0 °F 100% 30.24 in 10.0 mi SW 5.8 mph - N/A   Clear
8:47 PM 5.0 °F -4.1 °F 5.0 °F 100% 30.24 in 10.0 mi SW 4.6 mph - N/A   Partly Cloudy
8:58 PM 5.2 °F -3.8 °F 5.2 °F 100% 30.40 in 10.0 mi SW 4.6 mph - 0.00 in   Partly Cloudy
9:07 PM 5.0 °F - 5.0 °F 100% 30.23 in 10.0 mi SSW 2.3 mph - N/A Snow Light Snow
9:30 PM 5.0 °F - 5.0 °F 100% 30.24 in 10.0 mi WSW 2.3 mph - N/A   Clear
9:58 PM 5.4 °F - 5.4 °F 100% 30.40 in 10.0 mi South 1.2 mph - 0.00 in   Clear
10:02 PM 5.0 °F - 5.0 °F 100% 30.24 in 10.0 mi South 2.3 mph - N/A   Partly Cloudy
10:13 PM 5.0 °F - 5.0 °F 100% 30.25 in 10.0 mi WSW 2.3 mph - N/A Snow Light Snow
10:23 PM 5.0 °F -4.1 °F 5.0 °F 100% 30.25 in 10.0 mi WSW 4.6 mph - N/A Snow Light Snow
10:27 PM 5.0 °F -4.1 °F 5.0 °F 100% 30.25 in 10.0 mi West 4.6 mph - N/A   Overcast
10:28 PM 5.0 °F -2.1 °F 5.0 °F 100% 30.25 in 10.0 mi West 3.5 mph - N/A   Light Freezing Drizzle
10:32 PM 5.0 °F -2.1 °F 5.0 °F 100% 30.25 in 10.0 mi West 3.5 mph - N/A   Light Freezing Drizzle
10:55 PM 4.1 °F -5.1 °F 4.1 °F 100% 30.41 in 10.0 mi WSW 4.6 mph - N/A   Overcast
11:55 PM 5.7 °F - 5.7 °F 100% 30.40 in 9.0 mi SSW 2.3 mph - N/A   Overcast